View from above orbital plane
|
View from above satellite
|
Ground track
|
The orbit data is extracted from the following two-line orbital elements,
1 15332U 84105B 21102.58843089 .00000089 00000-0 77648-5 0 9997
2 15332 82.5337 323.5932 0022700 88.5233 301.6184 14.83456487952369
Epoch (UTC): | 12 April 2021 14:07:20 |
Eccentricity: | 0.0022700 |
inclination: | 82.5337° |
perigee height: | 602 km |
apogee height: | 634 km |
right ascension of ascending node: | 323.5932° |
argument of perigee: | 88.5233° |
revolutions per day: | 14.83456487 |
mean anomaly at epoch: | 301.6184° |
orbit number at epoch: | 95236 |
The dashed part of the orbit path shows where the satellite is in the earth's shadow,
|
|